Location: Grand Lay
(47.3253°N, 0.9468°E)
Time: 20:24:20
(UTC+00:00)

Gbstr 26 Del rocket - Pass Details

Date: 18 April 2026
Orbit: 490 x 1216 km, 51.8° (Epoch: 13 May)

Event Time Altitude Azimuth Distance (km) Brightness Sun altitude
Exits shadow 04:07:07 - 294° (WNW) 2,417 5.7 -9.5°
Reaches altitude 10° 04:08:53 10° 293° (WNW) 1,685 4.9 -9.3°
Maximum altitude 04:12:34 70° 209° (SSW) 529 2.5 -8.7°
Drops below altitude 10° 04:16:24 10° 126° (SE) 1,743 5.8 -8.1°
Sets 04:18:41 0° 124° (SE) 2,691 6.8 -7.8°
